This is the latest recevied weather packets stored in our database for station/object YO4ISC-13. If no packets are shown the sender has not sent any weather packets the latest 10 day(s).
| Time | Temp. | Humidity | Pressure | Rain* | Wind** | Luminosity | Snow |
|---|---|---|---|---|---|---|---|
| 1777729802 | 11.11° C | 60% | 1023 hPa | - | - | - | - |
| 1777729201 | 11.11° C | 61% | 1023 hPa | - | - | - | - |
| 1777728602 | 10.56° C | 61% | 1023 hPa | - | - | - | - |
| 1777728001 | 11.11° C | 60% | 1023 hPa | - | - | - | - |
| 1777727402 | 11.67° C | 61% | 1024 hPa | - | - | - | - |
| 1777726801 | 12.22° C | 48% | 1023 hPa | - | - | - | - |
| 1777726202 | 11.67° C | 49% | 1023 hPa | - | - | - | - |
| 1777725602 | 12.22° C | 47% | 1023 hPa | - | - | - | - |
| 1777725001 | 12.22° C | 49% | 1023 hPa | - | - | - | - |
| 1777724402 | 13.33° C | 43% | 1023 hPa | - | - | - | - |
| 1777723801 | 12.78° C | 43% | 1023 hPa | - | - | - | - |
| 1777723202 | 12.78° C | 43% | 1023 hPa | - | - | - | - |
| 1777722601 | 12.78° C | 41% | 1024 hPa | - | - | - | - |
| 1777722002 | 12.78° C | 47% | 1024 hPa | - | - | - | - |
| 1777721401 | 12.78° C | 41% | 1023 hPa | - | - | - | - |
| 1777720802 | 13.33° C | 38% | 1024 hPa | - | - | - | - |
| 1777720202 | 12.78° C | 36% | 1024 hPa | - | - | - | - |
| 1777719601 | 12.78° C | 40% | 1024 hPa | - | - | - | - |
| 1777719002 | 12.78° C | 43% | 1024 hPa | - | - | - | - |
| 1777718401 | 12.78° C | 41% | 1024 hPa | - | - | - | - |
| 1777717802 | 12.78° C | 43% | 1024 hPa | - | - | - | - |
| 1777717202 | 13.33° C | 42% | 1024 hPa | - | - | - | - |
| 1777716601 | 12.78° C | 47% | 1024 hPa | - | - | - | - |
| 1777716002 | 12.78° C | 46% | 1024 hPa | - | - | - | - |
| 1777715401 | 12.78° C | 42% | 1024 hPa | - | - | - | - |
* Rain since midnight (hover to see other rain measurements)
** Current wind speed in m/s (hover to see current wind gust speed)